Wind_Speed
19 18 18 19 19 19 19 19 19 18 17 16 15 15 14 13 12 11 10 10 9 9 9 9 9 8 7 7 7 7 7 6 6 6 5 5 5 5 4 4 4 4 4 4 4 4 4 4 4 5 5 6 7 8 8 8 8 8 8 9 9 9 9 8 7 6 7 7 6 6 6 6 6 6 6 5 5 5 5 5 5 6 7 8 10
21 20 19 19 18 18 18 18 18 17 16 16 15 14 14 13 13 12 11 11 10 10 10 10 10 10 9 9 8 8 8 7 7 7 6 6 6 6 6 6 7 6 6 6 6 6 6 6 6 6 7 7 8 8 9 9 8 8 8 9 9 9 9 8 8 7 7 7 7 6 6 6 6 6 6 5 5 4 4 5 5 6 7 8 10
22 21 20 20 19 18 17 17 17 16 16 16 15 15 14 14 14 13 12 11 11 11 11 11 11 11 11 11 10 10 9 8 8 8 7 7 7 7 7 8 8 8 8 8 8 8 8 8 8 8 8 8 9 10 10 10 10 10 10 10 9 10 10 10 9 9 8 8 8 7 7 7 7 8 7 7 6 6 6 6 7 7 8 10 11
23 22 21 21 20 19 18 18 17 17 17 17 16 16 15 14 14 13 13 13 12 12 12 12 12 13 13 12 12 11 10 10 9 9 9 8 8 8 8 9 9 9 9 10 10 10 10 10 10 10 10 10 10 10 11 11 11 11 11 11 11 11 12 12 11 11 10 9 8 8 8 8 9 10 10 10 9 9 9 9 10 10 10 11 13
22 22 22 21 20 20 20 19 19 18 18 18 17 17 15 15 15 14 13 13 13 13 13 13 13 14 13 13 13 12 12 11 11 10 10 9 9 9 9 9 9 10 10 10 10 11 11 11 11 11 11 12 12 12 12 12 11 11 12 12 12 12 13 13 13 13 13 12 11 10 10 9 10 12 13 13 13 12 12 12 13 14 14 13 13
23 22 22 21 21 21 20 20 20 20 19 19 18 17 16 16 15 14 14 14 13 13 14 14 14 14 14 14 14 13 13 12 12 12 11 11 10 10 9 9 9 10 10 10 11 11 12 12 12 13 13 13 13 13 13 13 12 12 12 13 13 13 14 14 15 16 16 15 14 13 12 12 12 13 14 15 16 16 16 15 14 15 16 16 14
24 24 23 22 22 21 21 21 21 21 20 19 18 17 17 16 16 15 15 15 14 14 15 15 15 15 15 15 15 15 15 14 14 14 13 13 12 11 11 11 11 11 11 11 11 11 12 13 13 13 13 14 14 14 14 14 13 13 13 13 14 14 14 15 16 17 18 18 17 16 15 14 14 14 15 15 16 17 18 18 16 15 15 15 14
25 25 25 24 23 23 23 22 21 21 20 19 18 17 17 17 16 16 15 15 15 16 16 16 16 16 16 17 17 16 16 16 16 16 15 15 14 14 14 13 13 12 12 12 12 12 12 13 13 14 14 15 15 15 15 15 14 14 13 13 14 14 14 14 15 16 17 18 17 17 16 15 15 15 15 16 16 16 17 17 17 17 16 15 13
26 26 26 26 26 26 25 24 23 22 20 19 18 18 18 18 17 17 16 16 17 17 17 16 17 17 18 18 18 18 18 18 18 18 18 18 18 17 17 16 15 15 14 13 13 13 14 14 15 15 15 16 16 17 16 16 15 15 14 13 13 14 14 14 14 15 16 17 17 16 16 16 15 15 15 16 16 16 16 16 16 17 17 17 15
27 27 27 27 28 28 27 26 25 24 22 22 21 20 20 19 19 18 17 17 18 17 17 17 18 18 19 19 19 19 20 20 20 21 21 21 20 20 19 19 18 17 16 16 15 15 15 15 16 16 16 17 17 17 17 17 16 16 15 14 14 14 15 15 15 15 15 16 17 17 17 17 16 15 16 17 17 17 16 16 17 17 18 18 17
27 27 28 29 30 30 30 29 28 27 26 25 25 24 24 23 21 20 20 19 19 19 19 19 19 20 20 20 20 21 21 22 23 23 23 23 22 22 21 20 20 19 18 17 17 17 17 18 18 18 18 19 19 19 19 19 18 17 17 17 16 16 17 17 17 17 17 17 18 18 18 18 17 16 16 17 18 18 17 17 17 18 19 19 19
29 29 30 30 30 30 30 30 29 29 28 28 28 28 27 26 25 24 23 23 23 23 22 22 22 22 22 22 22 22 23 24 25 25 24 24 23 23 22 22 21 21 20 20 20 19 19 20 21 21 21 21 21 21 21 21 21 21 20 20 20 20 20 20 20 19 19 20 20 20 20 20 20 19 18 18 18 19 18 18 18 19 19 19 19
29 30 30 30 29 29 29 29 29 29 29 29 29 29 29 28 28 28 27 27 27 27 26 26 25 25 24 24 24 24 25 26 26 26 25 25 24 24 24 23 23 22 22 22 22 22 22 21 22 22 22 22 22 22 23 23 24 24 24 24 23 23 23 23 23 22 22 22 23 23 23 23 23 22 20 20 20 20 20 20 20 20 20 20 19
29 29 28 27 28 29 30 29 28 27 28 29 30 31 31 31 31 30 30 30 30 29 29 28 28 27 26 26 26 26 27 27 27 27 27 26 26 25 25 25 24 24 24 24 24 24 23 22 22 22 22 22 22 23 23 24 25 25 26 26 26 26 26 25 25 25 24 24 25 25 25 25 26 25 23 22 21 20 20 21 21 22 23 23 21
28 28 27 27 27 29 30 30 29 28 27 28 30 31 32 32 31 31 31 31 31 30 30 30 30 29 29 28 28 28 28 29 29 29 28 28 27 26 26 25 25 25 25 25 25 24 24 23 23 23 23 23 23 23 24 24 25 26 27 27 27 28 28 28 27 27 26 26 27 27 27 27 27 26 25 24 23 22 22 22 23 23 24 25 24
29 29 30 30 29 30 31 31 30 29 29 29 29 30 30 31 31 31 30 30 30 30 30 31 31 31 31 31 31 31 30 30 30 30 30 29 29 28 27 26 25 26 26 26 26 26 25 25 24 23 23 23 23 24 24 25 26 27 28 28 29 29 29 29 29 28 28 29 29 29 29 28 28 28 28 27 26 26 25 25 26 26 26 27 27
31 33 35 34 33 33 33 32 32 30 29 28 28 29 30 30 30 30 30 29 29 29 30 31 32 32 32 32 32 32 32 32 32 31 31 31 30 30 29 28 27 27 27 27 27 27 27 26 25 24 24 24 24 24 25 27 28 30 31 31 31 31 31 31 31 31 32 32 32 32 31 30 29 29 29 29 29 28 29 29 29 29 29 29 29
35 36 36 34 35 36 35 34 33 32 30 30 30 31 31 31 30 30 30 30 29 29 29 30 31 32 33 34 34 34 34 33 33 32 31 31 32 31 31 30 29 29 29 29 29 29 28 27 26 26 26 26 26 26 28 29 30 32 33 34 34 33 33 34 34 35 36 35 34 33 33 32 31 30 30 30 30 30 31 31 31 32 31 31 31
40 39 35 34 38 40 39 37 36 34 34 33 31 31 32 32 31 31 32 32 31 30 30 30 31 32 34 35 36 35 35 34 34 33 33 33 33 32 32 31 31 30 30 30 30 30 29 29 28 28 28 28 28 29 30 31 32 33 34 35 35 35 35 35 36 36 36 35 34 34 34 33 32 32 31 30 30 31 31 32 32 32 32 32 32
45 42 38 38 41 42 40 39 38 37 36 35 34 34 34 34 34 34 34 34 32 30 30 30 31 34 37 37 37 36 36 35 35 34 35 35 34 33 32 32 32 31 30 30 31 31 31 31 30 30 30 31 31 31 32 33 34 35 35 35 36 36 35 34 35 36 35 35 35 34 33 32 32 32 32 31 31 32 32 32 32 33 32 32 31
48 46 42 41 43 43 41 39 39 38 36 35 36 36 36 37 37 37 37 35 32 31 31 31 32 36 38 39 40 39 37 37 37 36 36 36 36 36 35 35 34 32 32 32 33 33 33 33 32 32 33 33 33 33 34 34 34 34 34 34 35 36 35 34 35 36 35 35 35 33 31 31 31 32 32 32 31 32 32 32 32 32 32 31 30
44 46 43 40 41 42 41 39 39 38 36 37 38 38 38 39 39 38 39 37 33 31 32 33 35 38 39 40 42 42 40 39 39 38 39 38 38 38 37 37 37 36 36 36 37 37 37 36 35 35 35 35 35 35 35 35 34 34 35 33 31 32 33 33 34 35 35 34 33 31 29 29 30 31 32 31 31 31 31 31 31 30 30 29 28
34 40 42 41 40 40 38 34 33 33 33 33 34 35 36 38 39 39 40 39 35 33 32 33 33 33 32 34 38 42 44 43 41 40 41 40 40 40 39 38 39 39 39 39 40 40 40 39 37 36 35 36 36 36 36 35 33 32 33 35 33 30 28 28 30 32 32 32 32 30 29 29 30 31 31 31 31 31 31 31 30 29 28 27 26
21 26 31 33 33 32 29 25 25 27 28 28 27 27 26 27 29 31 33 35 35 33 31 30 30 29 27 27 29 33 38 41 41 40 40 40 40 41 41 41 42 42 42 41 41 41 40 40 39 37 35 35 35 35 35 34 29 26 26 29 28 25 24 27 30 31 32 33 34 32 31 30 31 31 31 32 32 32 32 32 32 31 29 27 26
17 18 19 21 22 22 21 20 20 21 23 23 22 22 20 19 20 21 23 25 28 30 30 29 28 28 28 28 27 27 28 32 35 37 38 39 40 41 41 40 40 40 41 42 41 40 40 41 41 39 36 35 35 35 35 30 24 21 22 24 24 25 27 30 31 32 33 34 35 34 33 33 32 33 33 33 33 34 35 35 35 35 34 32 30
22 21 20 20 21 21 21 21 21 22 23 24 25 26 26 25 25 24 24 24 25 27 29 30 31 31 31 31 30 28 27 29 31 33 34 35 37 37 37 36 35 33 35 37 37 37 37 37 39 40 39 37 36 36 36 32 27 28 32 36 38 40 40 39 39 39 39 39 38 37 35 34 34 35 35 35 36 37 37 38 38 38 38 37 36
26 26 27 26 26 25 26 26 26 26 27 28 29 30 31 31 30 28 28 28 29 30 32 33 33 34 33 31 30 29 29 30 31 32 31 31 31 31 32 32 30 28 29 31 34 37 36 34 35 37 38 39 39 40 41 41 41 43 46 47 49 49 49 49 49 50 49 47 44 40 37 36 36 37 37 37 38 39 39 40 40 41 41 41 41
26 27 28 28 28 28 27 27 27 27 27 28 28 28 28 29 29 28 28 30 31 32 33 33 33 33 33 32 31 31 33 34 36 37 37 36 35 34 34 34 32 29 28 29 32 38 39 37 33 32 33 35 38 41 43 46 47 48 49 51 51 51 50 50 52 53 53 50 46 42 39 38 38 39 39 39 40 40 41 42 43 43 44 44 44
26 26 26 26 27 27 27 27 27 27 27 27 27 27 27 28 28 29 29 31 32 33 34 35 35 34 34 33 32 33 35 36 38 39 41 41 41 39 38 38 37 35 33 32 32 35 37 34 31 29 30 32 35 37 41 44 46 48 50 52 53 52 51 51 51 51 50 48 46 43 41 40 40 41 41 42 42 43 43 44 44 45 45 45 45
30 29 29 28 28 28 28 28 28 28 28 28 29 29 30 30 31 31 31 33 34 35 35 36 37 37 36 35 35 35 35 36 38 39 41 42 42 42 41 40 39 38 37 36 36 36 37 36 35 34 34 36 37 37 39 40 41 43 45 46 46 46 46 46 46 45 45 44 44 43 41 41 42 43 44 45 45 46 46 46 46 47 47 47 47
33 33 33 32 32 31 31 30 30 31 31 32 33 33 34 34 35 35 35 36 36 37 38 38 39 39 39 39 39 39 39 40 40 40 41 42 43 43 43 43 42 41 40 40 39 39 40 41 42 42 41 40 41 41 42 42 43 43 44 44 44 45 45 46 45 45 46 46 45 44 44 44 45 46 47 48 49 49 49 49 49 49 49 50 50
35 35 35 36 36 35 35 34 34 34 34 35 36 37 37 38 38 39 39 39 39 40 40 41 41 41 41 41 41 42 42 43 43 43 43 43 44 44 44 44 44 43 43 43 43 42 42 42 43 44 44 44 44 45 46 47 48 48 48 48 48 49 49 50 50 50 49 49 48 47 47 47 48 49 49 50 51 51 51 52 52 53 53 53 53
37 37 38 38 38 39 39 39 38 38 38 38 38 38 39 40 40 41 41 41 42 42 43 43 43 43 43 43 44 44 44 45 45 46 46 46 45 45 45 45 45 45 45 45 45 45 45 44 44 44 44 45 45 46 47 48 49 49 48 49 49 50 51 52 52 52 51 51 51 50 49 50 50 51 51 52 53 53 54 55 55 56 56 57 57
39 40 40 40 40 41 41 41 41 41 41 41 41 40 41 41 42 42 43 43 43 44 44 45 46 46 47 47 47 48 48 49 49 50 50 50 49 49 49 49 49 49 50 49 49 49 49 49 48 47 45 45 45 46 46 47 48 50 50 50 50 51 52 52 53 53 53 53 53 53 53 53 53 54 54 55 55 56 57 58 58 59 60 60 61
41 42 42 42 43 43 43 43 44 44 44 44 44 44 44 44 44 44 45 45 45 46 46 47 47 48 48 49 49 50 50 51 52 52 52 52 52 52 52 53 53 53 54 54 54 54 54 54 53 51 49 48 48 48 48 48 50 52 54 54 54 54 54 55 55 55 55 56 56 56 57 57 57 57 57 58 58 59 59 60 61 61 62 62 62
41 42 43 44 45 45 46 46 46 46 46 47 47 47 47 47 47 47 47 47 48 48 49 49 49 49 50 50 50 50 51 52 52 53 53 53 53 53 53 53 53 54 54 55 55 55 56 56 56 55 54 53 52 52 51 51 51 52 54 55 55 56 56 56 57 57 59 60 60 60 60 60 60 60 60 61 62 62 63 63 63 63 63 63 63
41 42 42 43 44 45 46 47 48 48 48 48 49 49 49 49 49 49 49 49 50 50 51 51 52 52 52 52 52 52 52 52 53 54 55 55 55 55 54 54 54 54 54 53 54 54 55 55 55 55 55 54 54 54 54 54 54 55 56 57 58 60 61 62 61 61 61 62 63 63 62 62 62 62 63 64 64 65 65 66 66 66 66 65 65
42 43 44 44 45 45 46 46 47 48 49 49 49 50 50 50 50 50 50 51 51 51 52 53 54 54 55 55 55 55 55 54 55 55 56 56 56 56 56 56 55 55 55 54 54 54 54 54 55 55 55 55 56 56 57 57 58 59 60 61 63 65 66 67 66 64 62 62 63 63 64 65 66 66 67 67 67 68 68 68 68 69 69 69 69
42 43 44 45 46 46 46 47 47 48 49 49 50 51 51 51 51 51 51 51 51 51 52 52 54 54 55 56 57 57 57 57 57 57 57 57 58 58 58 58 57 57 57 57 57 56 56 56 56 57 57 58 59 59 59 59 60 60 61 63 64 64 64 65 65 64 64 64 65 66 67 69 69 70 70 70 70 71 71 71 71 71 71 72 72
42 43 44 45 46 46 47 48 48 48 49 49 50 51 52 53 53 53 53 52 52 52 52 52 53 53 54 55 55 56 57 57 57 57 57 57 57 58 58 58 59 59 59 59 59 59 60 60 60 60 61 61 62 62 62 63 64 65 66 66 67 67 67 67 67 67 67 68 68 69 70 72 73 73 73 73 73 73 73 74 74 75 75 75 75
41 43 44 45 46 47 48 48 48 49 49 49 49 50 51 51 52 53 54 54 54 54 53 53 54 54 54 54 54 55 56 56 57 57 57 57 57 57 57 57 57 58 58 59 60 61 61 62 62 62 62 63 64 64 64 65 66 67 68 68 69 69 69 70 70 71 72 72 73 73 74 75 75 76 76 76 76 76 76 77 77 77 77 77 76
42 43 44 45 46 47 48 49 49 50 50 50 49 49 49 50 50 51 52 52 53 53 53 53 53 53 54 54 54 54 55 56 57 57 57 57 57 57 57 57 57 57 57 58 59 60 61 62 63 64 64 65 66 66 67 68 69 69 69 69 70 71 71 73 74 75 75 75 74 73 73 73 73 74 74 74 74 74 74 74 74 75 75 75 74
44 45 45 45 46 47 48 49 49 50 50 50 50 50 49 49 49 49 50 50 51 52 52 53 53 54 54 54 54 54 55 55 56 56 57 57 57 57 57 57 58 58 59 59 60 61 61 62 63 64 65 66 67 69 70 71 71 72 72 72 72 73 74 75 75 75 75 74 74 73 72 72 72 72 72 73 73 73 74 74 74 74 74 74 74
46 46 47 47 47 48 48 49 49 50 51 51 51 51 50 50 50 50 50 50 51 51 52 52 53 54 55 55 55 56 56 56 56 56 56 56 56 56 57 57 58 59 59 60 61 62 62 63 64 65 65 67 68 69 70 71 71 72 73 74 75 75 76 76 76 76 75 74 74 74 74 73 74 74 74 74 74 74 74 74 74 75 75 75 75
46 47 47 48 48 48 49 50 50 51 51 52 52 53 53 53 53 53 53 53 53 53 53 54 54 55 56 56 56 56 56 56 56 56 57 57 58 58 59 59 60 60 61 61 61 62 62 63 64 65 66 67 67 68 69 69 70 70 71 72 72 73 74 75 75 75 75 75 74 74 73 73 73 73 73 73 73 73 73 73 74 74 75 75 76
45 45 46 46 46 47 48 49 50 51 52 53 53 54 55 55 55 56 56 56 56 56 56 56 56 57 57 57 57 57 57 57 57 58 58 59 60 61 61 62 62 62 63 63 63 64 64 64 65 65 66 67 67 68 68 68 69 69 69 69 70 70 71 72 72 72 73 73 73 73 73 73 73 73 72 72 72 72 72 72 72 73 73 73 73
43 44 44 45 45 46 47 47 49 50 51 52 53 54 55 56 56 56 57 57 58 58 58 58 58 58 59 59 59 59 59 59 59 59 59 60 61 62 62 63 64 64 65 66 66 67 67 67 68 68 68 68 68 68 68 68 68 68 68 68 69 69 69 69 69 69 69 69 70 69 70 70 70 70 69 69 69 69 69 69 69 69 70 70 70
42 43 43 44 45 46 46 47 48 49 50 51 52 53 54 55 56 56 57 57 58 58 58 57 58 58 59 59 59 59 59 59 59 59 60 60 61 62 62 63 64 64 65 66 67 67 68 69 70 70 70 70 70 70 70 69 69 69 69 68 68 68 68 68 67 67 67 67 67 67 67 67 67 67 67 68 68 69 69 70 70 71 71 72 72
42 43 44 44 45 46 46 47 48 50 51 52 52 53 54 55 56 56 57 57 57 58 57 58 58 58 58 58 58 58 58 59 59 59 59 60 60 61 61 62 63 64 65 66 66 67 67 68 69 69 69 69 69 70 70 69 68 68 67 67 66 65 65 65 65 65 65 65 65 66 66 67 67 68 68 69 69 70 71 72 73 74 74 75 75
44 44 45 46 46 47 47 48 49 50 51 52 53 54 54 55 55 56 56 56 56 57 57 57 57 57 57 57 57 57 57 57 58 58 59 59 60 60 61 61 62 62 63 64 65 65 65 65 65 65 65 65 65 65 65 65 65 64 64 63 63 63 62 63 63 64 64 64 64 64 64 65 65 66 66 67 69 70 71 72 73 73 74 74 74
45 46 46 47 48 48 49 49 50 50 51 52 53 53 54 54 54 55 55 55 56 56 56 56 56 56 56 56 56 56 57 57 57 57 57 58 59 59 59 59 59 59 59 60 61 62 63 63 63 63 62 61 61 61 61 61 61 60 60 60 60 61 61 61 62 62 61 61 61 61 62 63 64 65 66 68 69 69 69 69 69 69 69 70 70
Wind_Direction
199 203 208 211 213 214 217 219 219 221 222 225 227 227 228 230 229 227 227 227 224 219 215 212 212 212 213 215 216 219 220 223 227 233 239 244 247 252 255 260 260 259 260 259 259 264 270 280 293 305 309 311 312 315 320 326 332 334 334 335 338 340 342 342 342 341 339 344 355 0 2 1 356 356 357 351 350 349 342 333 319 309 310 316 322
201 202 205 210 212 214 217 218 220 220 221 222 222 223 226 228 231 232 231 229 225 219 213 212 212 213 215 218 220 223 226 229 233 240 247 253 258 263 267 271 270 269 270 270 271 272 274 279 284 290 294 297 300 303 307 312 313 315 317 320 325 325 326 328 330 330 331 335 346 357 2 357 349 347 348 345 346 343 334 325 316 311 313 317 321
205 206 208 211 214 216 218 221 223 224 225 226 226 227 230 233 236 238 237 233 229 223 216 214 214 215 217 220 224 226 229 233 239 244 250 256 261 265 268 271 272 272 272 273 274 274 274 276 278 280 283 287 290 293 296 299 301 303 306 310 314 314 314 317 318 319 320 324 333 341 347 347 338 333 336 339 337 332 324 321 318 317 318 321 325
209 211 212 213 214 216 219 223 226 228 230 232 233 234 236 238 240 240 239 237 234 230 225 220 218 219 221 223 226 230 234 238 244 248 251 255 260 264 266 268 271 273 274 275 276 276 276 276 278 278 279 281 282 283 287 290 294 298 301 304 305 305 305 306 307 308 310 313 319 323 326 330 325 320 323 325 323 319 317 319 322 322 322 322 325
213 215 217 217 217 217 218 221 224 227 230 232 233 235 237 239 242 242 240 238 236 234 233 230 226 224 224 226 229 233 237 241 246 249 252 255 258 261 264 267 268 269 272 275 277 279 280 280 280 281 282 282 281 281 283 285 289 294 298 298 296 295 295 296 297 298 300 302 305 306 307 310 309 307 310 313 313 313 313 315 317 318 319 321 323
215 218 220 221 221 221 220 220 222 224 226 228 230 232 234 237 240 241 241 241 239 238 237 236 234 232 229 229 230 234 237 240 244 247 251 254 255 258 263 265 266 265 267 271 274 277 280 281 282 283 284 285 285 284 285 287 290 294 297 296 293 290 288 289 290 292 294 297 299 301 301 301 300 299 300 303 307 309 311 313 312 310 311 315 320
215 218 221 223 224 225 225 224 225 225 224 225 226 228 230 233 237 239 241 243 242 241 241 240 238 238 236 234 234 236 239 241 244 247 250 253 255 257 259 262 263 264 266 269 271 274 277 280 283 284 285 286 286 286 286 288 290 292 295 296 294 293 291 289 290 291 294 297 300 303 303 302 299 297 296 297 299 301 304 307 309 307 306 308 314
217 219 222 224 226 227 227 228 230 231 230 229 228 228 229 231 233 235 238 241 243 243 244 243 242 242 242 241 241 241 243 245 246 248 249 250 251 251 253 256 258 261 264 267 271 274 276 279 282 284 285 286 286 284 284 285 287 289 292 294 294 294 292 290 290 292 295 298 301 303 303 302 300 298 298 299 299 299 299 302 304 305 305 305 310
219 221 223 225 227 228 229 229 231 233 235 235 234 232 232 232 233 234 235 237 240 243 245 246 246 246 245 245 245 245 247 248 249 250 250 249 249 250 251 252 253 255 258 262 266 269 271 275 278 280 284 286 286 285 284 285 287 288 289 289 289 290 289 288 289 290 292 294 298 300 300 300 299 299 299 299 300 301 301 302 302 303 304 305 308
224 224 225 226 228 229 230 230 231 232 234 235 236 235 235 234 235 235 236 238 240 241 243 245 245 246 247 247 247 248 248 249 250 250 251 252 252 252 252 252 252 253 254 257 261 265 268 270 272 275 279 282 283 283 283 284 285 286 286 285 284 285 287 289 290 290 290 291 292 294 294 295 295 296 296 297 298 299 300 302 302 302 302 304 306
227 226 227 229 230 230 231 231 231 231 231 232 234 235 235 235 235 235 236 239 241 242 242 243 244 245 246 247 248 249 249 250 250 250 251 252 253 253 253 254 254 254 255 258 260 263 266 268 270 272 274 276 277 277 278 279 281 282 284 284 284 285 286 288 289 289 289 289 289 290 290 291 292 291 291 292 293 295 297 298 298 299 300 302 305
228 227 227 229 233 235 236 236 235 234 233 233 233 234 236 236 236 236 236 237 239 241 241 242 243 245 246 247 247 248 249 250 252 252 253 253 253 254 254 255 256 258 259 260 261 263 266 269 271 272 274 275 275 275 275 276 277 278 279 279 280 282 282 283 284 285 285 286 286 288 289 289 289 288 287 288 289 290 293 293 294 295 297 299 302
230 231 231 232 234 237 238 240 241 242 241 240 239 238 239 239 239 238 238 238 239 241 242 243 244 246 247 248 249 249 250 251 253 254 254 255 255 255 256 256 257 258 260 261 263 265 268 270 272 273 274 274 275 276 276 276 277 277 277 277 278 279 279 280 281 282 283 284 284 285 285 285 285 284 284 283 283 285 287 289 291 293 294 295 296
230 232 236 239 240 240 239 238 239 243 246 246 245 244 242 242 242 242 242 242 242 243 244 246 247 248 250 250 251 252 253 255 256 256 256 256 256 256 257 257 257 258 259 261 263 266 268 270 272 273 274 275 276 278 278 279 280 280 280 279 279 279 279 280 281 282 282 283 282 282 282 282 282 282 281 280 280 281 283 285 288 290 291 291 291
231 231 234 239 242 245 246 241 236 236 239 243 245 246 246 245 245 246 248 249 249 249 249 249 250 250 251 252 253 253 255 256 257 258 259 258 258 258 258 258 259 260 261 262 263 264 266 267 269 271 273 275 276 278 279 280 281 281 282 282 282 282 282 281 282 282 284 284 283 281 281 281 282 282 282 282 282 283 284 285 286 287 289 290 290
232 234 236 236 235 238 243 244 240 237 236 239 243 246 248 250 250 251 252 254 256 257 257 256 254 253 252 252 253 254 254 255 256 258 259 260 260 261 261 261 261 261 262 262 263 264 265 266 268 270 272 274 276 277 279 281 282 282 282 282 282 282 282 282 282 283 284 284 283 282 281 281 282 283 283 284 286 288 290 291 290 288 289 290 290
228 232 236 237 235 233 234 239 241 242 241 241 242 243 245 247 251 253 254 255 256 257 258 259 258 257 257 255 255 254 254 255 256 257 258 260 262 262 262 262 262 263 263 264 264 265 266 267 269 271 272 274 275 278 280 282 283 284 284 284 284 283 282 282 281 282 284 284 283 281 279 278 278 279 280 282 285 289 292 294 293 291 290 289 289
230 231 233 239 241 238 236 236 238 243 245 242 240 240 242 243 246 250 252 255 256 255 256 258 259 259 260 259 258 257 256 256 257 257 258 259 260 261 262 262 262 262 263 265 266 266 267 268 269 270 270 272 274 277 280 282 285 286 286 286 285 283 283 282 281 281 282 282 281 279 277 276 275 275 277 279 283 288 292 293 293 292 291 290 290
234 234 232 236 240 239 239 239 238 241 244 243 242 244 246 248 249 248 247 248 252 254 256 258 260 259 259 259 259 259 259 259 259 259 258 258 257 258 259 260 260 260 261 264 266 267 268 269 269 269 270 272 274 276 279 282 284 284 284 285 284 283 282 282 281 280 279 278 278 276 275 273 274 275 277 280 283 287 289 290 289 288 287 287 288
234 233 231 234 237 236 238 241 241 240 241 243 246 249 251 252 252 251 246 244 246 251 255 259 263 263 260 258 257 257 257 258 258 259 259 259 257 256 256 257 258 259 261 263 265 267 267 267 267 269 270 271 271 273 276 279 281 282 282 281 280 281 280 281 281 277 273 274 275 273 271 271 272 274 277 279 281 284 286 286 286 285 284 283 283
228 228 228 232 233 232 236 241 242 241 244 248 251 251 250 251 252 251 249 246 246 249 253 258 263 264 261 258 256 255 254 253 255 256 258 259 258 257 256 258 259 260 261 263 263 264 264 263 265 266 268 269 270 272 274 277 279 281 280 277 277 279 278 278 278 274 269 271 273 271 269 268 269 271 274 276 279 282 284 285 285 284 282 280 279
227 227 230 234 232 231 236 241 241 241 247 252 253 251 250 251 252 251 249 249 250 249 251 257 262 262 260 258 257 257 256 255 255 257 257 258 258 258 259 260 262 263 263 264 264 264 266 267 267 267 269 271 271 272 275 279 278 277 275 271 270 272 271 269 269 269 270 271 272 270 269 269 268 269 272 274 277 279 281 283 283 281 279 277 275
228 228 233 237 236 234 238 241 239 239 244 248 249 249 248 249 251 251 250 250 250 250 252 257 260 263 265 265 264 262 260 258 258 259 259 258 258 259 260 261 262 263 264 265 266 267 268 269 270 271 273 275 274 275 277 279 277 275 274 270 265 265 266 263 262 263 265 266 267 269 271 271 271 271 273 275 278 280 281 282 281 279 277 275 273
231 230 232 234 234 233 234 237 236 235 237 240 241 242 244 246 250 254 253 249 247 249 252 254 257 264 271 276 277 271 263 259 259 261 261 259 259 261 262 262 262 263 263 263 264 266 269 271 273 274 275 277 278 277 276 276 276 277 276 272 265 260 258 257 257 257 257 260 265 271 274 276 276 276 276 277 279 279 280 280 279 277 276 274 272
248 245 241 239 238 236 235 236 236 236 239 243 246 249 252 255 259 264 263 255 249 249 251 252 257 265 273 278 281 278 268 260 259 261 261 260 261 262 264 264 266 268 266 263 264 267 270 271 271 269 268 270 272 270 269 270 272 271 271 274 273 268 262 260 259 259 260 265 272 277 279 279 279 278 278 278 277 277 277 277 276 275 275 274 273
259 260 261 260 257 255 253 251 249 248 250 256 261 265 268 269 270 271 270 266 260 257 257 259 263 269 273 274 274 272 267 261 259 259 259 260 260 260 260 261 265 268 267 263 261 261 262 263 261 257 255 258 262 264 264 264 262 261 266 272 276 276 273 271 269 268 270 272 275 278 278 277 276 276 277 277 276 275 275 275 275 275 275 275 275
269 270 272 273 271 269 268 267 266 266 266 268 269 270 270 271 271 270 269 267 266 266 266 267 269 271 272 269 264 262 263 263 263 263 263 264 264 261 259 260 262 266 267 264 257 254 258 265 266 260 257 259 262 263 264 265 264 265 269 272 274 274 274 273 271 272 273 273 274 276 276 275 274 274 273 273 273 273 274 274 275 276 277 277 277
276 276 277 278 278 277 275 273 273 273 274 274 274 274 273 272 270 269 267 265 265 266 265 265 268 271 271 266 260 258 261 265 268 269 270 271 272 271 270 271 272 273 274 270 263 259 262 267 266 261 260 262 263 262 264 266 268 270 272 272 272 272 272 272 271 272 273 273 274 274 274 273 273 273 273 273 273 274 274 275 276 276 277 278 277
276 276 276 276 277 277 277 276 275 275 274 274 274 275 275 274 272 270 267 266 266 266 265 265 266 268 268 266 262 260 262 266 268 270 272 274 276 277 277 277 277 276 274 272 270 267 266 263 259 257 259 260 261 263 264 266 268 270 271 271 270 269 270 272 273 274 276 277 277 275 273 272 274 275 275 276 275 275 275 275 276 276 276 277 277
274 275 276 276 277 277 277 277 277 277 277 276 276 276 276 276 276 274 272 270 269 269 268 268 267 266 266 265 264 264 266 268 268 269 270 272 275 277 278 279 279 278 276 273 271 269 267 266 266 265 265 264 264 265 265 266 267 269 271 272 272 272 273 275 277 278 278 279 278 277 276 275 275 276 276 276 276 276 276 276 276 276 276 276 277
272 274 275 276 277 277 277 275 274 275 275 276 276 276 276 276 276 276 274 273 272 271 270 269 269 268 267 265 265 266 267 267 267 267 268 269 271 272 274 276 277 278 278 276 273 269 268 268 268 269 268 266 266 266 266 268 269 271 273 274 274 274 275 277 279 279 278 278 277 277 277 277 277 276 276 276 276 276 276 276 276 276 276 277 277
271 271 272 273 274 274 274 273 272 270 270 270 270 271 272 272 272 273 273 272 271 270 270 269 269 269 269 268 267 266 266 266 266 266 266 267 267 268 269 271 272 274 275 276 275 273 270 268 267 267 267 266 265 266 267 268 270 272 272 273 272 273 274 275 276 276 275 274 274 274 275 275 275 275 275 275 275 275 275 276 276 276 276 276 277
269 269 269 269 270 270 271 270 270 269 268 266 266 265 266 267 267 268 268 268 268 268 268 268 267 267 267 267 266 265 264 264 264 264 264 265 265 266 267 268 269 270 271 272 272 272 271 269 267 266 267 267 268 268 269 269 270 270 270 270 270 271 271 272 273 274 273 272 272 272 272 273 273 273 273 273 274 274 274 274 274 275 275 275 275
267 267 267 267 267 268 268 268 268 268 268 267 266 265 264 264 264 264 265 265 265 265 265 265 265 265 265 265 265 265 265 265 265 265 265 265 266 266 267 268 269 270 271 271 271 271 271 270 270 269 268 268 268 268 269 270 271 271 270 270 270 270 271 271 272 272 272 271 271 271 271 271 271 272 272 272 273 273 273 273 273 273 273 274 274
263 264 265 265 265 265 265 266 266 266 266 267 267 266 266 265 264 264 264 264 264 264 264 264 264 265 265 265 265 266 267 267 267 268 268 268 268 267 267 268 268 269 270 271 271 271 271 271 271 270 269 267 266 266 268 270 270 269 268 267 267 268 269 270 271 271 272 271 271 270 271 271 272 272 273 274 274 274 274 274 274 273 273 274 274
263 263 263 263 264 264 264 265 265 265 265 265 265 266 266 266 265 265 264 264 264 265 265 264 264 264 264 264 265 265 266 267 268 268 269 269 269 269 269 268 268 268 268 268 269 269 270 270 270 270 269 267 265 264 266 268 268 267 266 266 266 266 267 267 268 270 271 272 272 272 271 271 272 273 274 275 276 276 276 276 276 276 276 276 276
264 264 263 263 263 263 263 264 264 265 265 266 266 265 265 265 266 265 265 265 264 265 265 265 265 266 266 265 265 265 265 265 266 266 267 268 269 269 269 269 268 268 267 267 267 267 267 267 268 268 268 267 265 263 263 263 264 264 265 266 266 268 269 270 269 269 270 272 274 274 274 274 275 275 276 276 276 277 277 277 277 277 277 277 278
267 267 266 266 265 265 265 265 265 266 266 267 267 267 267 267 266 266 266 266 265 265 265 265 265 266 266 267 267 267 266 266 265 265 266 266 267 268 268 268 268 267 267 266 266 265 265 265 266 266 267 267 266 266 265 265 265 266 266 267 268 269 271 271 271 271 271 272 274 276 276 277 277 277 277 277 277 278 278 278 278 278 278 278 278
271 271 270 269 269 268 268 267 267 266 266 267 268 268 269 269 269 268 268 268 267 266 265 265 265 265 265 266 267 267 268 267 267 267 266 266 266 267 267 267 267 267 266 265 265 264 264 264 264 264 265 265 266 266 266 266 267 267 268 269 271 272 273 274 274 275 275 276 277 277 277 277 277 277 277 277 277 277 278 278 278 278 278 278 279
272 272 272 272 271 271 270 269 269 268 268 267 267 267 268 268 269 269 270 269 269 268 268 267 266 265 265 265 266 266 267 267 267 267 267 267 267 266 267 267 267 266 266 265 264 264 263 263 264 264 265 265 265 266 266 266 266 267 267 268 269 271 273 274 275 275 275 276 276 276 276 276 276 276 275 275 275 276 277 277 277 277 277 277 277
271 271 272 272 272 272 272 271 271 270 270 269 268 267 267 267 268 268 269 270 270 270 270 270 269 268 268 267 266 266 266 267 267 267 268 268 268 267 267 267 267 267 266 266 265 265 265 265 265 265 266 266 267 267 267 268 268 268 269 269 270 271 272 274 275 275 275 275 275 274 275 275 275 275 274 274 275 275 275 275 276 276 276 276 276
273 272 272 271 272 272 272 272 272 271 271 270 270 269 269 268 268 268 269 269 270 271 271 271 271 271 271 270 269 268 268 268 268 268 268 269 269 269 269 269 269 268 268 267 267 266 266 265 265 265 265 265 265 266 266 267 268 269 271 272 272 272 272 273 273 273 273 272 272 272 272 272 272 273 273 273 274 274 275 275 276 276 277 278 278
276 274 273 271 271 270 271 271 271 271 272 272 271 271 271 270 270 270 269 270 270 270 270 271 271 271 271 271 271 270 270 269 269 269 270 270 271 271 271 270 270 270 269 269 269 268 268 268 267 267 266 266 266 266 266 267 267 268 269 270 271 272 272 272 272 272 272 272 272 273 273 274 275 275 276 276 277 278 278 279 279 279 279 280 280
279 277 275 273 271 270 269 269 269 270 270 271 271 271 271 271 271 271 271 271 270 270 270 270 270 270 270 270 270 270 271 271 271 271 271 271 271 271 271 270 270 270 269 269 269 269 269 269 270 269 269 269 269 269 269 269 269 269 269 270 271 271 272 273 274 275 276 277 277 278 279 279 280 280 280 280 281 281 281 281 280 280 280 280 280
281 279 278 277 275 273 271 270 269 269 269 269 269 270 270 270 270 271 271 271 271 270 270 269 269 269 269 269 269 269 269 270 270 271 271 271 271 271 271 271 271 271 271 271 270 270 270 270 270 270 270 271 271 271 271 271 271 272 272 272 273 273 274 274 276 277 278 279 280 280 281 281 281 281 281 282 282 282 282 282 282 281 281 280 280
281 281 280 279 278 276 274 272 271 270 270 269 269 269 270 270 270 270 271 271 271 271 270 270 269 269 268 268 268 268 268 268 269 269 270 270 271 271 271 272 272 273 273 273 273 272 272 272 272 272 272 272 272 272 272 273 273 273 274 274 275 275 275 276 276 277 278 279 279 280 281 281 281 281 282 282 282 282 282 282 282 282 281 281 281
280 280 279 279 278 277 276 275 274 272 272 271 271 270 270 271 271 271 271 271 271 271 271 271 271 270 269 269 269 269 270 270 270 270 271 271 271 271 272 272 272 273 273 273 274 274 274 274 274 274 274 273 273 273 273 274 274 274 275 275 275 275 276 276 277 278 278 279 279 280 280 281 281 281 282 282 282 283 283 283 283 283 283 282 282
277 277 277 276 276 276 276 275 275 274 273 272 272 272 271 271 271 271 271 271 271 271 271 271 271 271 271 271 271 272 272 272 272 272 272 272 272 272 273 273 273 273 273 273 273 274 274 274 274 274 275 275 275 275 275 275 275 275 275 274 275 275 276 277 277 278 279 280 280 280 280 281 282 282 283 283 284 284 284 284 284 284 284 284 284
276 276 276 276 275 275 275 275 275 275 274 274 274 273 273 272 272 272 271 271 271 271 271 271 271 272 272 272 273 273 273 273 274 274 274 274 274 274 274 274 274 274 274 274 274 274 274 274 274 275 275 276 276 276 277 277 277 277 276 277 277 277 278 278 279 280 280 281 281 281 282 282 283 284 284 284 285 286 286 286 286 286 286 286 286
276 276 276 276 276 276 276 275 275 275 275 275 274 274 274 273 273 272 272 272 272 272 272 272 273 273 273 273 273 274 274 275 275 276 276 276 276 277 277 277 277 277 278 278 277 277 277 276 276 276 276 276 276 277 277 277 278 278 279 279 280 281 281 282 282 282 282 282 283 283 284 284 285 286 286 287 288 288 288 288 287 287 286 286 286
277 277 277 277 276 276 277 277 276 276 276 275 275 274 274 274 274 273 273 273 273 273 273 273 274 274 274 274 274 274 275 275 276 276 277 277 278 279 279 279 279 279 280 279 279 278 277 276 276 275 275 276 276 276 276 277 277 278 279 280 281 282 282 282 282 283 283 284 285 286 287 288 289 290 291 291 291 290 289 288 288 287 287 286 286
Height
5929 5931 5932 5933 5935 5936 5937 5938 5938 5939 5940 5941 5942 5942 5943 5943 5944 5945 5945 5946 5946 5947 5947 5948 5948 5949 5950 5950 5951 5951 5952 5952 5952 5953 5953 5953 5954 5954 5954 5954 5954 5954 5954 5953 5953 5953 5953 5953 5953 5953 5953 5953 5953 5953 5952 5952 5952 5951 5951 5951 5950 5950 5950 5949 5949 5948 5948 5947 5947 5947 5946 5946 5945 5944 5943 5943 5942 5941 5941 5940 5940 5939 5939 5938 5937
5927 5929 5931 5932 5933 5935 5936 5937 5938 5939 5939 5940 5941 5942 5942 5943 5944 5944 5945 5945 5946 5946 5947 5947 5948 5948 5949 5950 5950 5951 5951 5952 5952 5952 5953 5953 5953 5953 5953 5953 5953 5953 5953 5953 5953 5952 5952 5952 5953 5953 5953 5953 5952 5952 5952 5951 5951 5951 5950 5950 5950 5949 5949 5949 5948 5948 5948 5947 5947 5947 5947 5946 5945 5944 5944 5943 5942 5942 5941 5940 5940 5939 5938 5938 5937
5926 5928 5929 5931 5932 5933 5935 5936 5937 5938 5939 5939 5940 5941 5942 5943 5943 5944 5944 5945 5945 5945 5946 5946 5947 5947 5948 5949 5949 5950 5951 5951 5951 5952 5952 5952 5952 5952 5952 5952 5952 5952 5952 5952 5952 5952 5952 5952 5952 5952 5952 5952 5952 5951 5951 5951 5950 5950 5950 5950 5949 5949 5948 5948 5947 5947 5947 5947 5947 5947 5946 5946 5945 5945 5944 5943 5942 5942 5941 5940 5940 5939 5938 5937 5937
5925 5927 5928 5929 5931 5932 5933 5934 5936 5937 5938 5938 5939 5940 5941 5942 5942 5943 5943 5944 5944 5945 5945 5945 5945 5946 5946 5947 5948 5949 5949 5950 5950 5950 5951 5951 5951 5951 5951 5951 5951 5951 5951 5951 5951 5951 5951 5951 5951 5951 5951 5951 5950 5950 5950 5950 5949 5949 5949 5949 5949 5948 5948 5947 5946 5946 5946 5946 5946 5946 5946 5946 5945 5944 5944 5943 5942 5941 5941 5940 5939 5939 5938 5937 5936
5925 5926 5927 5928 5929 5930 5931 5932 5934 5935 5936 5937 5937 5938 5939 5940 5941 5942 5942 5943 5943 5944 5944 5944 5945 5945 5945 5946 5947 5947 5948 5948 5949 5949 5949 5950 5950 5950 5950 5950 5950 5950 5950 5950 5950 5950 5950 5950 5950 5950 5950 5950 5949 5949 5949 5949 5949 5949 5948 5948 5948 5948 5947 5946 5945 5945 5945 5945 5945 5945 5945 5945 5945 5944 5943 5942 5941 5940 5940 5939 5939 5937 5936 5936 5935
5923 5924 5925 5927 5928 5929 5930 5931 5931 5932 5933 5934 5935 5936 5937 5938 5939 5940 5941 5941 5942 5942 5943 5943 5944 5944 5945 5945 5946 5946 5946 5947 5947 5947 5948 5948 5948 5948 5949 5949 5949 5949 5949 5949 5949 5949 5949 5949 5949 5949 5949 5948 5948 5948 5948 5948 5948 5948 5948 5947 5947 5947 5946 5945 5945 5944 5943 5943 5943 5944 5944 5944 5943 5943 5942 5940 5939 5938 5938 5937 5937 5937 5935 5934 5934
5921 5922 5923 5925 5926 5927 5928 5928 5929 5930 5931 5932 5933 5934 5935 5936 5937 5938 5939 5940 5940 5941 5941 5942 5942 5943 5943 5944 5944 5944 5945 5945 5945 5946 5946 5946 5947 5947 5947 5947 5948 5947 5947 5947 5947 5947 5947 5947 5947 5947 5947 5947 5947 5947 5947 5947 5947 5947 5946 5946 5946 5945 5945 5944 5944 5943 5942 5942 5942 5942 5942 5942 5941 5941 5940 5939 5938 5937 5936 5936 5935 5935 5934 5933 5933
5918 5919 5921 5922 5923 5924 5925 5926 5927 5928 5929 5930 5931 5932 5933 5934 5935 5936 5937 5938 5938 5939 5939 5940 5940 5941 5942 5942 5942 5943 5943 5943 5944 5944 5944 5944 5945 5945 5945 5946 5946 5946 5946 5946 5946 5946 5946 5945 5945 5945 5946 5945 5945 5945 5945 5945 5945 5945 5945 5945 5944 5944 5943 5943 5942 5942 5941 5940 5940 5940 5940 5940 5939 5938 5938 5937 5936 5936 5935 5934 5934 5933 5932 5932 5932
5915 5917 5918 5920 5920 5921 5922 5924 5925 5926 5927 5929 5930 5931 5931 5932 5932 5933 5934 5935 5936 5937 5937 5938 5938 5939 5939 5940 5940 5941 5941 5941 5942 5942 5942 5942 5942 5942 5943 5943 5943 5944 5944 5944 5944 5944 5944 5944 5944 5944 5944 5944 5944 5944 5944 5944 5943 5943 5943 5943 5943 5942 5942 5941 5941 5940 5940 5939 5938 5938 5938 5937 5937 5937 5936 5935 5935 5934 5934 5933 5932 5931 5931 5930 5930
5913 5915 5916 5917 5917 5918 5920 5921 5922 5923 5925 5926 5927 5928 5929 5930 5930 5931 5932 5933 5934 5934 5935 5936 5936 5937 5937 5937 5938 5939 5939 5939 5939 5939 5940 5940 5940 5940 5941 5941 5941 5941 5942 5942 5942 5942 5942 5942 5942 5942 5942 5942 5942 5942 5941 5942 5941 5941 5941 5941 5941 5940 5940 5939 5939 5938 5938 5937 5936 5936 5936 5935 5935 5935 5934 5933 5933 5933 5932 5931 5930 5929 5929 5928 5928
5911 5912 5913 5913 5914 5915 5917 5918 5919 5920 5921 5923 5924 5925 5926 5927 5928 5929 5929 5930 5931 5932 5932 5933 5933 5934 5934 5935 5936 5936 5936 5936 5936 5937 5937 5937 5938 5938 5938 5939 5939 5939 5940 5940 5940 5940 5940 5940 5940 5940 5940 5940 5939 5939 5939 5939 5939 5939 5939 5939 5939 5938 5938 5937 5937 5936 5936 5935 5934 5934 5933 5933 5933 5933 5932 5931 5931 5931 5930 5930 5929 5927 5927 5926 5926
5907 5908 5909 5910 5911 5913 5915 5916 5916 5917 5918 5919 5920 5921 5922 5923 5924 5925 5926 5927 5927 5928 5929 5930 5930 5931 5931 5932 5933 5933 5933 5933 5933 5934 5934 5935 5935 5935 5936 5936 5937 5937 5937 5938 5938 5938 5938 5938 5938 5938 5937 5937 5937 5937 5936 5936 5936 5936 5936 5936 5936 5936 5936 5935 5935 5934 5933 5933 5932 5931 5931 5930 5930 5930 5930 5929 5928 5928 5928 5927 5926 5925 5924 5924 5924
5904 5905 5906 5908 5909 5911 5912 5913 5915 5916 5916 5917 5918 5919 5920 5921 5922 5922 5923 5923 5924 5925 5926 5927 5927 5928 5929 5929 5930 5930 5930 5930 5930 5931 5931 5932 5932 5933 5933 5934 5934 5935 5935 5935 5935 5935 5935 5936 5935 5935 5935 5935 5934 5934 5934 5934 5933 5933 5933 5933 5933 5933 5933 5932 5932 5931 5931 5930 5929 5929 5928 5927 5927 5926 5926 5926 5926 5925 5925 5924 5924 5923 5922 5922 5921
5901 5903 5904 5906 5907 5907 5908 5909 5910 5912 5914 5915 5916 5916 5917 5918 5918 5919 5920 5921 5921 5922 5923 5924 5925 5925 5926 5927 5927 5927 5927 5928 5928 5928 5928 5929 5929 5930 5931 5931 5932 5932 5932 5932 5932 5932 5932 5932 5932 5932 5932 5932 5932 5931 5931 5931 5931 5931 5931 5930 5930 5930 5929 5929 5929 5928 5928 5927 5926 5926 5925 5924 5923 5923 5923 5923 5922 5922 5921 5921 5921 5920 5919 5918 5919
5898 5899 5901 5902 5903 5904 5905 5905 5906 5907 5909 5910 5911 5912 5913 5914 5915 5916 5917 5918 5919 5920 5921 5921 5922 5923 5923 5924 5924 5925 5925 5925 5925 5925 5925 5926 5926 5927 5928 5928 5928 5929 5929 5929 5929 5929 5929 5929 5929 5929 5929 5929 5929 5929 5928 5928 5928 5927 5927 5927 5927 5927 5926 5926 5926 5925 5924 5924 5923 5922 5922 5921 5920 5920 5919 5919 5919 5919 5918 5918 5918 5917 5916 5914 5915
5896 5898 5899 5899 5899 5899 5901 5903 5904 5904 5904 5906 5907 5909 5910 5911 5911 5912 5913 5915 5916 5918 5919 5919 5919 5919 5920 5920 5921 5921 5921 5921 5922 5922 5922 5923 5923 5924 5924 5924 5925 5925 5925 5925 5925 5925 5925 5925 5925 5925 5926 5926 5926 5925 5925 5925 5924 5924 5924 5924 5924 5923 5923 5923 5922 5922 5921 5920 5919 5919 5918 5918 5917 5917 5916 5916 5916 5916 5915 5915 5915 5914 5913 5912 5911
5893 5895 5896 5897 5896 5895 5896 5899 5901 5902 5902 5903 5904 5905 5906 5907 5908 5909 5910 5911 5913 5914 5915 5915 5916 5916 5916 5916 5917 5917 5917 5917 5918 5918 5919 5919 5920 5920 5920 5920 5921 5921 5921 5921 5921 5921 5921 5921 5922 5922 5922 5921 5921 5922 5921 5921 5920 5920 5919 5919 5920 5920 5919 5919 5918 5918 5917 5916 5915 5915 5914 5914 5914 5913 5913 5913 5913 5913 5912 5912 5912 5911 5911 5909 5908
5888 5889 5891 5893 5893 5893 5893 5895 5897 5898 5900 5900 5900 5900 5901 5902 5903 5904 5906 5907 5909 5910 5911 5912 5912 5913 5913 5913 5913 5913 5913 5913 5914 5914 5914 5915 5915 5916 5916 5916 5917 5917 5917 5917 5917 5917 5918 5919 5918 5918 5918 5918 5918 5917 5917 5917 5917 5916 5916 5915 5915 5915 5915 5915 5914 5913 5913 5912 5911 5910 5910 5909 5909 5909 5909 5909 5909 5909 5909 5908 5908 5907 5907 5906 5905
5883 5884 5887 5889 5889 5889 5890 5891 5892 5894 5896 5896 5897 5897 5898 5898 5899 5900 5901 5903 5905 5906 5907 5908 5909 5909 5909 5909 5909 5909 5910 5910 5910 5910 5910 5910 5911 5911 5912 5912 5912 5913 5913 5913 5914 5914 5915 5915 5915 5914 5914 5914 5913 5913 5913 5913 5912 5912 5912 5911 5910 5910 5910 5910 5909 5909 5909 5907 5906 5905 5905 5905 5905 5905 5905 5905 5905 5905 5905 5904 5903 5902 5902 5902 5901
5878 5879 5881 5883 5884 5885 5886 5887 5889 5890 5891 5892 5894 5894 5895 5895 5895 5896 5897 5898 5900 5902 5903 5904 5904 5904 5904 5904 5905 5906 5906 5906 5906 5906 5906 5906 5906 5907 5907 5908 5908 5908 5909 5909 5910 5910 5910 5911 5911 5911 5910 5910 5910 5909 5909 5908 5908 5907 5907 5906 5906 5905 5905 5904 5905 5905 5905 5904 5902 5901 5900 5900 5901 5901 5901 5901 5902 5901 5900 5899 5899 5898 5897 5897 5897
5871 5873 5874 5876 5878 5880 5882 5883 5885 5886 5887 5888 5889 5890 5891 5891 5892 5893 5894 5894 5895 5897 5899 5900 5900 5899 5898 5898 5899 5901 5901 5901 5902 5902 5902 5903 5903 5903 5903 5904 5904 5904 5903 5903 5904 5904 5905 5906 5907 5907 5906 5906 5905 5905 5904 5904 5903 5902 5902 5901 5901 5900 5900 5901 5901 5900 5900 5899 5898 5896 5896 5896 5896 5897 5897 5897 5897 5897 5896 5895 5895 5894 5894 5893 5893
5866 5868 5870 5872 5874 5876 5878 5879 5880 5882 5883 5884 5884 5885 5886 5887 5888 5889 5890 5891 5891 5892 5894 5895 5895 5894 5893 5892 5893 5895 5896 5897 5897 5897 5898 5899 5899 5900 5900 5900 5900 5899 5899 5898 5898 5898 5898 5899 5901 5901 5901 5900 5900 5899 5899 5898 5897 5896 5896 5896 5897 5896 5897 5898 5897 5895 5895 5894 5893 5892 5891 5891 5891 5892 5892 5892 5893 5893 5892 5892 5891 5890 5890 5890 5889
5863 5865 5867 5869 5871 5872 5874 5875 5876 5877 5878 5879 5879 5880 5882 5883 5884 5884 5885 5886 5887 5888 5889 5890 5890 5889 5889 5889 5889 5889 5890 5891 5892 5893 5893 5894 5895 5895 5896 5896 5895 5895 5895 5894 5894 5893 5893 5894 5895 5896 5896 5895 5895 5895 5894 5892 5892 5892 5890 5890 5892 5894 5895 5894 5892 5890 5889 5888 5887 5887 5887 5887 5887 5887 5887 5888 5888 5888 5888 5888 5887 5887 5887 5887 5886
5860 5861 5863 5865 5867 5868 5869 5870 5871 5872 5874 5874 5875 5875 5876 5878 5879 5880 5880 5881 5882 5883 5883 5884 5884 5884 5885 5885 5885 5884 5884 5885 5886 5887 5888 5888 5889 5889 5889 5890 5890 5889 5889 5890 5890 5890 5889 5889 5889 5890 5890 5890 5889 5889 5888 5888 5888 5888 5886 5885 5887 5890 5891 5889 5886 5886 5885 5884 5883 5883 5883 5883 5883 5883 5883 5884 5884 5883 5883 5883 5882 5882 5883 5883 5884
5858 5859 5860 5862 5863 5864 5865 5866 5867 5869 5870 5871 5871 5871 5871 5873 5874 5876 5876 5877 5877 5878 5879 5879 5879 5880 5881 5881 5882 5881 5880 5880 5881 5882 5882 5882 5883 5883 5883 5883 5884 5884 5883 5884 5885 5885 5885 5885 5884 5883 5885 5885 5884 5883 5883 5884 5885 5884 5882 5882 5883 5885 5886 5884 5883 5882 5882 5881 5880 5879 5879 5879 5880 5880 5880 5879 5879 5879 5878 5878 5878 5878 5878 5879 5880
5857 5857 5858 5860 5861 5862 5863 5864 5865 5866 5867 5868 5868 5868 5868 5869 5870 5872 5873 5873 5873 5874 5874 5875 5875 5876 5877 5878 5878 5878 5877 5876 5876 5877 5877 5877 5877 5877 5877 5878 5879 5878 5877 5878 5878 5879 5879 5878 5877 5877 5878 5879 5879 5878 5878 5880 5881 5880 5878 5879 5879 5879 5880 5880 5879 5878 5878 5877 5876 5875 5875 5876 5876 5876 5875 5875 5874 5874 5873 5873 5873 5873 5873 5873 5874
5855 5855 5856 5856 5858 5859 5859 5860 5862 5863 5864 5864 5865 5865 5865 5866 5867 5868 5869 5869 5870 5870 5871 5871 5871 5872 5872 5873 5873 5873 5873 5873 5872 5872 5872 5872 5872 5872 5873 5873 5874 5874 5873 5872 5873 5873 5873 5872 5872 5872 5873 5874 5873 5873 5872 5873 5874 5874 5873 5873 5873 5873 5873 5873 5873 5873 5872 5872 5871 5871 5871 5871 5871 5871 5870 5870 5870 5869 5869 5868 5868 5867 5867 5867 5867
5851 5852 5852 5853 5853 5854 5855 5856 5857 5858 5859 5859 5860 5861 5862 5862 5863 5864 5865 5865 5866 5867 5867 5867 5868 5867 5868 5868 5869 5869 5868 5868 5868 5867 5867 5867 5868 5868 5869 5869 5869 5869 5869 5869 5869 5868 5868 5867 5868 5868 5869 5868 5867 5867 5866 5866 5866 5866 5866 5866 5866 5866 5866 5866 5866 5866 5866 5866 5866 5866 5866 5866 5865 5866 5865 5865 5865 5865 5864 5864 5863 5862 5862 5861 5861
5848 5849 5849 5850 5850 5851 5851 5851 5852 5853 5854 5855 5855 5856 5857 5858 5859 5860 5861 5861 5862 5862 5862 5863 5863 5863 5863 5863 5864 5864 5864 5863 5863 5863 5862 5862 5862 5863 5863 5863 5864 5864 5864 5865 5865 5864 5863 5863 5863 5863 5863 5863 5862 5861 5861 5861 5861 5861 5860 5860 5860 5860 5860 5860 5861 5861 5861 5861 5861 5860 5860 5860 5860 5860 5860 5860 5859 5859 5858 5858 5857 5857 5856 5855 5855
5845 5845 5845 5846 5847 5847 5847 5848 5848 5848 5849 5850 5851 5851 5852 5853 5854 5855 5856 5856 5856 5857 5857 5857 5857 5858 5858 5858 5858 5858 5859 5859 5859 5858 5858 5858 5857 5857 5857 5858 5858 5858 5859 5860 5860 5860 5860 5859 5859 5859 5858 5858 5857 5857 5857 5856 5856 5856 5856 5855 5855 5855 5855 5855 5855 5855 5855 5855 5855 5855 5854 5854 5854 5854 5854 5854 5853 5852 5852 5851 5851 5850 5850 5849 5848
5842 5842 5842 5842 5842 5843 5843 5844 5845 5845 5845 5846 5846 5847 5847 5848 5848 5849 5850 5850 5850 5851 5851 5851 5851 5851 5852 5853 5853 5853 5853 5853 5853 5853 5853 5853 5853 5853 5853 5852 5852 5852 5852 5853 5853 5854 5854 5853 5853 5853 5853 5853 5852 5852 5851 5851 5851 5851 5850 5850 5850 5850 5850 5850 5850 5850 5850 5850 5849 5849 5849 5848 5848 5848 5848 5847 5847 5846 5845 5845 5844 5844 5843 5843 5842
5837 5838 5838 5839 5839 5839 5840 5840 5841 5841 5842 5842 5843 5843 5843 5844 5844 5844 5844 5844 5844 5844 5845 5845 5845 5845 5846 5846 5847 5847 5847 5847 5847 5848 5848 5848 5848 5848 5848 5848 5847 5847 5847 5847 5846 5846 5847 5847 5847 5847 5847 5846 5846 5846 5845 5845 5845 5844 5844 5844 5844 5844 5844 5844 5843 5843 5843 5843 5843 5842 5842 5842 5842 5841 5841 5840 5840 5839 5839 5838 5837 5837 5836 5836 5835
5831 5832 5833 5834 5834 5835 5835 5836 5836 5837 5837 5838 5838 5839 5839 5839 5839 5839 5839 5839 5839 5839 5838 5839 5839 5839 5840 5840 5840 5841 5841 5841 5841 5841 5841 5841 5841 5841 5841 5841 5841 5841 5841 5841 5840 5840 5840 5840 5840 5840 5840 5840 5840 5839 5839 5839 5838 5838 5837 5837 5837 5837 5837 5836 5836 5836 5835 5835 5835 5835 5835 5835 5834 5834 5834 5833 5833 5832 5831 5830 5830 5829 5828 5828 5827
5826 5826 5827 5828 5829 5829 5830 5830 5830 5831 5831 5832 5832 5833 5833 5834 5834 5834 5834 5834 5833 5833 5833 5832 5832 5833 5833 5833 5833 5834 5834 5834 5834 5834 5834 5834 5834 5835 5835 5834 5834 5834 5834 5834 5834 5834 5833 5833 5833 5833 5834 5834 5833 5833 5832 5832 5832 5831 5831 5830 5830 5830 5829 5829 5829 5828 5828 5828 5827 5827 5827 5827 5827 5826 5826 5825 5825 5824 5823 5823 5822 5821 5820 5819 5819
5820 5820 5821 5821 5822 5823 5824 5824 5825 5825 5825 5825 5826 5826 5826 5827 5827 5827 5827 5827 5827 5827 5826 5826 5826 5826 5826 5826 5826 5826 5826 5826 5825 5825 5825 5825 5826 5826 5827 5827 5827 5826 5826 5826 5826 5826 5825 5825 5825 5825 5825 5826 5826 5825 5825 5825 5825 5824 5824 5823 5823 5822 5822 5821 5821 5821 5820 5820 5820 5819 5819 5819 5819 5818 5818 5817 5816 5816 5815 5815 5814 5813 5812 5812 5811
5815 5815 5815 5815 5815 5816 5817 5817 5818 5818 5818 5819 5819 5819 5819 5820 5820 5820 5820 5820 5820 5820 5819 5819 5819 5819 5819 5819 5819 5819 5818 5818 5818 5817 5817 5817 5817 5818 5818 5818 5819 5819 5818 5818 5818 5818 5817 5817 5817 5817 5817 5817 5817 5818 5818 5818 5817 5817 5816 5816 5815 5814 5814 5813 5813 5813 5812 5812 5812 5811 5811 5811 5811 5810 5809 5809 5808 5807 5806 5806 5805 5804 5804 5803 5802
5809 5809 5809 5809 5809 5809 5810 5810 5810 5810 5811 5811 5812 5812 5812 5813 5813 5813 5813 5813 5813 5813 5812 5812 5812 5812 5811 5811 5811 5811 5810 5810 5810 5809 5809 5809 5810 5809 5810 5810 5810 5810 5810 5810 5810 5810 5809 5809 5809 5809 5809 5809 5809 5810 5810 5810 5809 5809 5808 5808 5807 5807 5806 5806 5805 5805 5804 5804 5804 5803 5803 5802 5802 5801 5800 5800 5799 5798 5797 5796 5796 5795 5794 5794 5793
5803 5804 5804 5804 5804 5804 5804 5804 5804 5803 5803 5803 5804 5804 5804 5805 5805 5805 5805 5805 5806 5806 5805 5805 5804 5804 5803 5803 5802 5802 5802 5801 5801 5801 5801 5801 5801 5801 5801 5801 5801 5801 5801 5801 5801 5801 5801 5801 5800 5801 5801 5801 5801 5801 5801 5800 5800 5800 5800 5799 5799 5798 5798 5797 5797 5796 5796 5795 5795 5794 5794 5793 5792 5792 5791 5790 5789 5788 5787 5786 5786 5785 5784 5783 5782
5798 5798 5798 5798 5798 5798 5798 5797 5797 5797 5797 5797 5796 5796 5796 5796 5796 5797 5797 5797 5797 5797 5797 5797 5797 5796 5796 5795 5794 5794 5793 5793 5792 5792 5792 5793 5793 5792 5792 5792 5792 5792 5792 5792 5792 5792 5792 5792 5792 5792 5792 5791 5791 5791 5791 5791 5791 5791 5791 5790 5790 5789 5788 5788 5787 5787 5786 5786 5785 5784 5784 5783 5782 5781 5780 5779 5778 5777 5777 5776 5775 5774 5773 5772 5771
5792 5791 5791 5791 5791 5791 5791 5791 5790 5790 5790 5790 5790 5789 5789 5789 5788 5788 5788 5788 5788 5788 5788 5788 5788 5788 5788 5788 5787 5786 5786 5785 5784 5784 5784 5784 5784 5784 5784 5784 5783 5783 5783 5783 5782 5782 5782 5782 5782 5782 5782 5782 5782 5782 5783 5783 5782 5782 5781 5781 5780 5779 5779 5778 5778 5777 5776 5776 5775 5774 5773 5773 5772 5771 5769 5768 5767 5767 5766 5765 5764 5763 5762 5761 5760
5786 5786 5785 5785 5784 5784 5784 5783 5783 5783 5783 5783 5782 5782 5782 5782 5781 5781 5780 5780 5780 5780 5780 5780 5779 5779 5780 5780 5779 5778 5778 5777 5776 5776 5775 5775 5775 5775 5775 5775 5775 5774 5774 5773 5773 5773 5773 5773 5773 5773 5773 5773 5773 5773 5773 5773 5773 5772 5772 5771 5770 5769 5769 5768 5767 5767 5766 5765 5765 5764 5763 5763 5762 5760 5758 5757 5756 5755 5755 5754 5753 5752 5751 5750 5749
5779 5779 5779 5779 5778 5777 5777 5776 5776 5776 5776 5775 5775 5775 5775 5775 5774 5774 5773 5773 5772 5772 5772 5772 5771 5770 5770 5770 5770 5770 5769 5768 5768 5768 5768 5768 5768 5767 5767 5766 5766 5765 5765 5764 5764 5764 5764 5764 5764 5764 5764 5764 5764 5764 5764 5764 5763 5762 5762 5761 5760 5759 5758 5757 5757 5756 5755 5755 5754 5754 5753 5752 5751 5749 5748 5746 5745 5744 5743 5742 5741 5740 5740 5739 5738
5772 5772 5771 5771 5771 5771 5770 5770 5769 5769 5768 5768 5768 5768 5768 5768 5767 5767 5766 5766 5765 5765 5764 5764 5763 5762 5761 5761 5761 5761 5760 5760 5760 5760 5760 5760 5759 5759 5759 5758 5757 5757 5756 5756 5756 5755 5755 5755 5755 5755 5755 5755 5755 5755 5754 5754 5753 5753 5752 5751 5750 5749 5748 5747 5746 5745 5745 5744 5743 5742 5741 5740 5739 5737 5736 5735 5734 5732 5732 5731 5730 5729 5728 5727 5726
5764 5764 5763 5763 5763 5763 5763 5763 5762 5762 5761 5761 5761 5760 5760 5760 5759 5759 5758 5758 5758 5757 5757 5756 5755 5754 5753 5752 5752 5752 5751 5751 5751 5751 5751 5751 5751 5750 5749 5748 5748 5748 5748 5747 5747 5747 5747 5746 5746 5746 5746 5746 5745 5745 5744 5743 5743 5742 5741 5740 5740 5739 5737 5736 5735 5735 5734 5733 5732 5731 5730 5729 5727 5726 5725 5723 5722 5721 5720 5719 5719 5717 5716 5716 5714
5756 5756 5755 5755 5755 5755 5755 5755 5755 5755 5754 5754 5753 5753 5752 5751 5751 5751 5750 5750 5749 5749 5749 5748 5747 5746 5744 5744 5743 5743 5743 5743 5743 5743 5743 5742 5741 5740 5739 5738 5738 5738 5738 5738 5738 5738 5737 5737 5737 5736 5736 5735 5735 5734 5734 5733 5732 5732 5731 5730 5729 5728 5727 5726 5725 5724 5724 5722 5721 5720 5719 5718 5716 5715 5714 5713 5712 5710 5709 5708 5707 5706 5705 5704 5703
5749 5748 5748 5747 5747 5747 5746 5746 5746 5746 5746 5746 5745 5745 5744 5743 5743 5743 5742 5742 5741 5740 5739 5739 5738 5737 5736 5735 5734 5735 5735 5735 5735 5734 5734 5733 5732 5731 5730 5729 5729 5729 5728 5728 5728 5728 5728 5727 5727 5726 5726 5725 5724 5724 5723 5722 5722 5722 5721 5720 5719 5718 5717 5716 5715 5715 5713 5712 5711 5710 5709 5707 5706 5705 5705 5703 5701 5700 5699 5697 5696 5695 5693 5692 5691
5743 5742 5741 5740 5739 5739 5738 5738 5738 5738 5737 5737 5737 5736 5736 5735 5735 5735 5734 5733 5732 5731 5730 5730 5729 5728 5727 5726 5726 5726 5726 5726 5726 5725 5724 5724 5723 5722 5721 5721 5720 5720 5719 5718 5718 5718 5718 5717 5717 5716 5715 5715 5714 5713 5713 5712 5712 5711 5711 5710 5709 5708 5707 5706 5705 5704 5703 5702 5702 5701 5699 5697 5696 5696 5695 5693 5691 5690 5688 5687 5685 5684 5682 5681 5680
5737 5736 5735 5734 5733 5732 5732 5731 5730 5729 5729 5729 5728 5728 5728 5727 5726 5726 5725 5724 5723 5722 5722 5721 5719 5718 5717 5717 5717 5717 5717 5717 5716 5715 5715 5714 5713 5713 5712 5712 5711 5710 5709 5709 5709 5708 5708 5707 5706 5705 5705 5704 5703 5703 5702 5702 5701 5701 5700 5700 5699 5698 5697 5696 5696 5694 5693 5693 5692 5691 5689 5688 5687 5686 5685 5683 5681 5679 5678 5676 5675 5673 5671 5670 5668
5730 5729 5728 5727 5727 5726 5725 5724 5723 5722 5721 5720 5720 5719 5719 5718 5718 5717 5716 5715 5714 5714 5713 5712 5710 5709 5709 5709 5708 5708 5707 5707 5706 5706 5705 5705 5704 5703 5703 5702 5701 5700 5699 5699 5699 5698 5698 5697 5696 5695 5694 5693 5693 5692 5691 5691 5690 5690 5689 5689 5688 5688 5687 5686 5685 5684 5684 5683 5682 5680 5679 5678 5677 5676 5674 5673 5671 5669 5667 5665 5663 5661 5660 5658 5656
5723 5722 5721 5720 5720 5719 5718 5717 5716 5715 5714 5713 5711 5710 5710 5709 5708 5708 5707 5706 5706 5705 5704 5703 5702 5701 5701 5700 5699 5699 5698 5698 5697 5697 5696 5695 5694 5694 5693 5693 5691 5690 5689 5689 5688 5687 5687 5687 5686 5685 5684 5684 5683 5683 5682 5681 5680 5680 5679 5679 5678 5677 5677 5676 5675 5675 5674 5673 5671 5670 5669 5668 5667 5665 5664 5662 5660 5658 5656 5654 5652 5650 5648 5646 5644
5715 5714 5713 5713 5712 5711 5710 5709 5708 5707 5706 5705 5704 5702 5701 5700 5700 5699 5698 5698 5697 5696 5695 5694 5693 5692 5692 5691 5691 5690 5690 5689 5688 5688 5687 5686 5685 5685 5684 5683 5682 5681 5680 5680 5679 5678 5677 5676 5676 5675 5675 5674 5674 5673 5673 5672 5671 5671 5670 5670 5669 5668 5668 5667 5666 5665 5664 5663 5662 5660 5659 5658 5656 5655 5653 5651 5649 5647 5645 5643 5640 5638 5636 5634 5632